Wind_Speed
58 57 60 60 62 69 70 63 59 55 59 63 65 65 67 63 59 56 57 58 58 59 59 57 58 57 58 59 61 61 62 62 64 65 65 70 71 72 69 70 71 73 66
61 62 62 62 64 72 71 66 63 63 65 66 68 71 71 74 66 64 60 61 60 57 59 59 59 60 61 63 64 63 63 65 67 66 72 76 79 80 81 76 68 66 64
70 66 66 66 68 65 67 71 74 71 70 73 72 79 78 78 74 68 68 64 64 59 56 59 61 62 62 63 64 66 68 69 67 69 74 79 78 76 70 68 62 53 49
76 66 66 70 75 74 76 80 70 74 81 84 87 86 82 81 81 76 67 63 63 59 59 61 63 63 65 67 66 66 68 70 70 73 76 73 71 70 67 58 55 53 49
76 67 66 65 70 84 81 79 82 75 85 87 87 88 84 80 79 76 68 58 61 62 63 63 65 66 70 71 70 70 69 69 69 70 68 67 64 60 59 59 61 58 56
82 78 75 75 79 73 79 76 84 79 84 87 89 88 87 81 78 72 65 64 67 67 66 64 67 69 72 74 74 74 71 71 72 74 70 62 58 61 60 60 62 62 64
81 83 81 77 77 82 84 79 83 84 85 78 87 90 83 83 79 67 68 74 72 69 73 71 70 71 74 74 73 73 72 75 72 68 64 60 61 62 68 68 64 69 72
74 74 79 79 80 82 85 85 85 84 76 71 75 74 66 69 70 71 70 67 66 66 69 77 75 78 75 74 75 75 77 76 70 63 66 65 68 70 73 74 72 76 73
88 84 82 81 81 86 91 92 89 85 78 70 69 68 70 71 72 69 64 65 66 70 70 71 75 76 72 74 80 83 85 70 68 66 68 71 72 75 82 83 81 82 79
102 98 94 91 89 85 84 87 94 95 87 79 77 76 75 73 65 63 63 64 66 71 74 74 63 68 76 72 77 68 69 71 67 67 74 79 76 81 85 87 88 85 84
89 90 92 89 91 86 77 70 74 79 82 83 75 72 67 59 63 69 67 64 68 71 66 66 64 63 78 78 76 68 63 64 71 75 78 80 82 85 88 88 89 85 85
80 76 73 81 87 85 76 69 74 76 77 81 74 67 60 61 67 58 58 57 62 66 58 59 57 65 71 79 67 67 67 65 68 72 78 81 84 87 87 83 80 80 83
99 97 88 84 80 84 81 69 71 81 84 84 71 60 60 59 54 47 54 51 53 50 52 56 69 64 65 69 70 73 70 71 75 72 77 81 79 77 78 76 78 82 85
108 102 93 93 89 87 85 73 72 66 66 70 63 60 66 63 58 54 58 59 54 51 55 51 50 58 67 73 73 75 69 72 71 71 73 72 71 70 70 74 81 85 84
106 105 104 95 89 89 84 75 71 64 69 68 60 58 60 63 65 64 68 67 70 63 59 58 55 52 61 68 74 75 76 75 78 80 79 76 77 75 77 79 81 84 82
94 97 96 97 93 93 89 81 78 80 77 76 64 57 63 74 72 68 70 66 65 67 65 65 59 54 56 62 64 66 72 72 72 74 74 78 81 77 75 75 76 77 76
82 83 86 90 92 97 102 104 94 85 77 79 79 75 68 70 81 71 77 76 70 68 70 66 60 61 61 65 70 74 75 79 78 76 77 80 80 76 77 71 68 67 66
73 72 73 75 79 87 101 109 105 100 89 89 79 76 72 80 84 81 79 80 71 71 73 73 61 64 68 69 76 79 79 80 83 78 73 77 78 76 70 65 64 63 64
61 62 64 65 65 67 74 85 86 76 81 88 89 88 80 85 82 90 96 87 84 75 75 74 74 73 73 75 80 86 90 87 86 72 73 75 69 63 61 60 60 63 65
48 52 53 52 51 53 55 58 62 62 63 67 74 81 83 88 91 94 99 101 91 92 86 74 74 73 74 77 80 84 87 83 74 71 69 63 60 58 57 58 60 62 65
33 34 35 36 36 40 43 44 46 48 51 54 57 60 66 78 86 90 90 86 84 86 83 75 73 75 77 75 74 70 69 69 69 64 57 56 56 56 58 60 61 63 67
23 23 26 30 29 27 27 28 28 31 36 40 42 44 47 52 55 60 63 65 68 67 69 70 69 68 60 59 57 56 58 58 55 51 51 52 53 57 60 61 62 65 71
20 25 29 30 29 26 25 29 28 23 22 25 27 29 30 35 42 46 49 51 52 47 45 45 45 44 52 50 47 49 49 46 46 46 46 50 55 60 61 62 65 69 74
10 11 15 21 24 28 29 26 25 26 26 24 24 26 31 33 34 31 29 30 30 33 36 36 37 42 47 47 46 44 41 41 43 45 48 53 58 60 62 64 68 72 76
13 13 14 14 15 16 17 19 20 20 21 23 23 20 17 15 18 21 23 26 25 27 34 35 35 38 40 38 36 36 38 42 45 48 52 55 57 61 64 67 70 75 79
2 0 3 4 6 9 12 12 13 15 17 17 17 18 21 24 26 28 27 28 33 34 32 33 33 30 28 29 32 35 40 44 48 51 53 56 60 62 65 69 74 79 80
Wind_Direction
276 266 263 258 257 260 261 251 256 255 265 269 270 269 269 273 272 269 268 266 264 265 268 269 268 268 269 271 272 274 276 277 278 280 282 285 287 288 291 292 291 290 293
272 271 259 258 255 252 251 248 247 257 266 274 277 275 272 272 274 274 269 267 265 262 264 266 266 267 269 271 271 273 274 274 276 276 282 282 283 285 286 289 288 290 289
272 264 254 255 250 251 251 253 255 259 268 275 277 274 272 270 272 276 270 265 263 259 260 264 264 265 266 268 270 271 272 276 277 277 278 280 284 286 286 283 285 288 289
266 260 257 256 250 245 247 250 255 268 274 275 271 269 267 268 270 274 267 261 259 256 255 260 267 269 270 269 273 273 275 278 280 279 281 284 284 281 278 279 280 281 287
256 261 260 257 261 250 253 253 262 266 269 269 268 268 266 268 274 276 266 260 262 262 262 265 266 268 269 271 274 277 279 281 283 282 282 281 276 274 277 279 280 283 290
258 260 263 265 268 264 258 258 261 263 264 266 267 267 265 267 271 269 262 261 262 263 264 265 266 267 270 272 275 278 280 280 280 281 280 273 270 272 277 282 287 284 291
271 271 270 264 262 263 263 264 261 259 261 262 264 267 266 267 264 257 260 263 263 265 267 268 269 270 272 273 274 277 278 275 274 274 270 267 266 273 278 284 289 291 295
267 264 259 262 261 261 262 258 255 256 254 260 263 262 265 264 255 259 259 265 267 271 273 270 269 269 271 272 272 271 273 273 266 269 270 268 266 270 276 282 290 294 293
267 265 266 262 257 258 258 258 254 255 254 255 256 259 258 256 265 265 270 271 272 273 272 274 272 272 269 269 266 262 265 264 266 272 271 271 272 276 277 280 287 292 293
266 264 263 259 265 263 264 263 264 261 262 260 259 263 262 259 268 270 273 278 277 273 271 270 269 268 269 269 261 261 261 269 270 271 273 274 273 275 277 280 284 292 296
261 263 266 261 264 265 262 263 265 266 266 267 268 261 261 261 267 269 273 272 271 268 266 266 264 268 268 263 263 255 270 274 271 275 275 275 275 279 280 283 289 292 296
265 269 269 263 256 256 259 259 259 260 268 263 256 258 262 265 265 267 271 270 263 258 262 262 269 269 263 254 254 250 274 271 274 273 273 274 275 278 281 284 289 293 297
269 267 262 268 262 254 259 262 263 259 257 252 248 252 257 263 266 269 263 253 254 248 260 259 270 270 260 250 273 270 269 266 266 265 269 273 275 279 285 289 290 291 295
264 265 265 265 264 262 255 256 255 253 253 248 246 249 259 258 267 255 258 265 260 260 260 263 271 271 256 258 261 268 263 263 269 270 270 274 278 288 289 289 290 288 291
260 261 261 258 255 257 251 246 246 254 255 250 253 258 264 254 257 257 257 255 259 264 259 264 268 272 271 270 267 267 261 263 265 267 270 279 286 293 292 289 288 289 292
263 260 259 259 253 250 244 245 246 245 249 249 258 255 262 259 250 258 251 253 253 258 257 262 261 267 273 280 279 281 264 264 264 270 280 285 289 289 288 287 287 289 293
269 264 261 258 256 248 246 253 249 250 254 253 257 259 263 258 252 248 256 247 248 256 256 257 270 273 280 279 278 276 270 265 261 274 284 285 286 285 288 284 287 292 295
269 267 265 261 257 255 250 250 256 259 257 260 250 255 257 252 252 245 245 248 246 245 250 254 266 269 273 274 272 272 270 270 270 281 276 278 281 284 286 285 290 292 292
266 265 264 264 262 259 256 256 258 257 252 249 250 253 252 253 252 254 250 250 248 249 257 270 269 270 272 271 270 269 273 275 278 275 274 279 280 282 282 287 289 290 293
265 263 264 263 262 261 261 260 261 262 258 256 254 254 252 249 250 254 257 256 255 259 270 268 266 265 266 269 269 268 269 273 272 273 277 279 280 280 284 286 287 290 296
268 265 264 264 261 263 264 263 261 259 257 256 254 251 251 251 253 258 262 263 265 267 270 265 263 261 263 266 268 266 268 268 272 275 275 275 277 281 284 285 289 294 300
270 262 254 251 252 255 262 266 264 256 249 248 248 248 248 249 250 250 252 253 255 257 258 258 260 263 263 259 267 269 269 270 270 269 272 275 279 281 282 287 292 298 303
273 258 256 256 254 257 253 259 268 259 248 242 242 245 251 251 247 246 247 249 250 254 253 250 255 258 255 260 266 267 265 264 265 270 275 277 278 279 284 290 294 299 303
288 276 265 258 255 255 259 256 249 255 255 248 250 256 257 251 247 243 243 241 245 254 254 257 255 257 255 257 262 261 261 267 272 275 276 277 278 282 288 292 295 301 303
279 272 268 265 258 255 256 254 252 246 242 244 241 232 235 242 236 240 248 251 251 262 256 259 261 252 247 251 256 261 268 272 275 276 277 278 282 287 291 295 299 301 305
52 339 297 281 258 259 260 255 245 227 215 220 235 248 262 262 255 252 258 253 258 261 257 251 246 244 250 257 264 269 272 273 274 276 279 283 288 292 294 298 301 303 307
Height
5633 5636 5636 5635 5634 5634 5634 5634 5636 5636 5637 5637 5636 5636 5638 5640 5641 5641 5641 5640 5640 5638 5639 5639 5639 5639 5640 5640 5640 5640 5641 5641 5640 5638 5636 5632 5629 5627 5624 5621 5620 5618 5617
5616 5617 5619 5619 5617 5616 5616 5617 5617 5618 5617 5617 5615 5616 5618 5618 5620 5621 5620 5621 5623 5622 5621 5621 5621 5622 5622 5623 5623 5623 5623 5624 5624 5621 5620 5618 5613 5611 5610 5608 5607 5605 5602
5594 5595 5598 5598 5600 5600 5600 5601 5601 5599 5600 5597 5596 5598 5599 5599 5599 5600 5601 5600 5602 5603 5603 5604 5604 5605 5605 5606 5606 5605 5605 5605 5604 5604 5601 5599 5598 5595 5593 5593 5592 5589 5587
5576 5575 5577 5579 5578 5578 5578 5578 5580 5580 5581 5580 5578 5578 5580 5580 5581 5582 5583 5582 5581 5583 5584 5586 5586 5588 5588 5588 5588 5586 5586 5584 5585 5585 5583 5582 5581 5577 5577 5577 5575 5572 5570
5554 5556 5558 5557 5558 5559 5558 5560 5563 5565 5561 5559 5557 5559 5561 5562 5564 5564 5564 5562 5563 5565 5567 5568 5569 5569 5570 5570 5569 5567 5566 5565 5565 5565 5565 5565 5562 5559 5559 5557 5557 5556 5553
5528 5531 5533 5533 5534 5536 5537 5540 5542 5543 5539 5538 5538 5540 5541 5543 5544 5544 5544 5545 5546 5546 5547 5549 5549 5550 5551 5551 5549 5548 5547 5546 5546 5547 5546 5545 5541 5540 5538 5538 5538 5537 5536
5498 5502 5504 5507 5509 5512 5512 5515 5517 5518 5516 5517 5516 5516 5519 5522 5524 5524 5524 5526 5528 5528 5529 5530 5530 5530 5530 5530 5528 5527 5528 5526 5527 5528 5527 5523 5523 5521 5519 5520 5518 5517 5512
5477 5479 5481 5482 5484 5484 5487 5489 5490 5491 5493 5495 5495 5495 5497 5501 5503 5504 5503 5505 5507 5509 5509 5510 5510 5510 5510 5510 5509 5508 5507 5507 5507 5510 5509 5503 5502 5500 5499 5499 5496 5494 5489
5450 5455 5458 5457 5460 5462 5463 5465 5465 5466 5469 5472 5474 5475 5477 5481 5482 5481 5482 5484 5485 5487 5488 5488 5490 5490 5489 5489 5489 5486 5486 5486 5488 5489 5488 5485 5483 5481 5477 5476 5471 5469 5466
5425 5426 5428 5428 5431 5435 5435 5436 5438 5440 5442 5447 5450 5454 5457 5460 5458 5458 5459 5465 5464 5467 5467 5468 5469 5470 5468 5467 5468 5468 5466 5466 5468 5467 5466 5464 5463 5459 5453 5450 5447 5443 5437
5393 5396 5399 5398 5402 5406 5410 5413 5415 5416 5419 5423 5429 5431 5431 5435 5438 5438 5439 5444 5444 5445 5446 5448 5447 5448 5448 5448 5448 5448 5448 5447 5447 5446 5443 5441 5440 5437 5432 5427 5422 5416 5413
5364 5366 5367 5370 5374 5379 5384 5389 5392 5394 5399 5403 5406 5409 5412 5417 5416 5416 5419 5423 5421 5423 5426 5427 5427 5426 5425 5427 5428 5428 5429 5427 5425 5424 5421 5419 5417 5414 5410 5405 5400 5394 5390
5331 5336 5341 5343 5348 5354 5358 5363 5370 5372 5376 5380 5383 5388 5392 5394 5393 5395 5398 5402 5402 5404 5408 5407 5406 5408 5407 5408 5410 5411 5409 5406 5406 5403 5401 5398 5395 5393 5389 5383 5378 5372 5367
5298 5303 5311 5316 5322 5326 5332 5339 5344 5351 5353 5356 5360 5364 5370 5373 5374 5375 5378 5381 5385 5385 5387 5387 5387 5387 5390 5392 5392 5391 5391 5391 5388 5385 5381 5378 5374 5371 5366 5361 5357 5350 5347
5265 5273 5280 5287 5296 5301 5306 5312 5320 5326 5330 5332 5339 5342 5347 5352 5355 5355 5357 5361 5365 5369 5367 5368 5369 5372 5373 5373 5371 5370 5370 5369 5367 5364 5360 5356 5353 5350 5345 5338 5333 5329 5324
5235 5241 5248 5254 5263 5273 5279 5284 5291 5300 5305 5309 5314 5321 5327 5330 5333 5335 5335 5338 5342 5347 5348 5350 5351 5350 5350 5351 5350 5349 5349 5348 5347 5343 5340 5337 5334 5328 5322 5315 5309 5305 5301
5201 5209 5215 5220 5228 5237 5246 5255 5264 5270 5277 5285 5293 5297 5304 5309 5311 5311 5313 5313 5318 5326 5329 5330 5327 5327 5327 5329 5330 5328 5328 5327 5325 5323 5318 5315 5312 5307 5302 5296 5289 5283 5279
5172 5178 5182 5188 5194 5202 5210 5220 5229 5236 5247 5258 5269 5272 5279 5285 5288 5289 5289 5290 5295 5305 5309 5305 5304 5306 5306 5307 5309 5308 5307 5306 5303 5300 5297 5292 5290 5288 5282 5277 5271 5264 5259
5148 5152 5156 5162 5168 5173 5180 5188 5198 5206 5218 5227 5238 5243 5254 5259 5260 5264 5265 5267 5273 5286 5284 5280 5279 5280 5282 5284 5286 5285 5283 5282 5280 5279 5276 5271 5268 5265 5261 5257 5253 5246 5239
5127 5131 5135 5141 5146 5152 5158 5165 5170 5176 5185 5195 5206 5214 5222 5229 5235 5237 5240 5244 5253 5257 5255 5254 5255 5257 5258 5260 5261 5261 5260 5260 5260 5258 5256 5253 5250 5246 5243 5240 5234 5228 5220
5113 5118 5123 5128 5134 5138 5143 5148 5153 5158 5163 5170 5178 5185 5192 5199 5205 5211 5215 5219 5224 5225 5228 5230 5233 5235 5238 5239 5239 5239 5239 5239 5240 5240 5238 5235 5233 5231 5227 5223 5217 5211 5204
5107 5111 5116 5121 5125 5130 5134 5137 5141 5146 5150 5156 5162 5167 5171 5177 5184 5187 5190 5194 5197 5202 5206 5210 5213 5216 5219 5221 5221 5221 5220 5222 5222 5222 5221 5219 5217 5216 5212 5208 5201 5194 5185
5105 5109 5113 5117 5120 5124 5128 5132 5136 5139 5143 5148 5152 5157 5162 5163 5164 5168 5172 5176 5180 5185 5188 5192 5196 5200 5202 5204 5204 5206 5206 5206 5206 5206 5207 5204 5202 5200 5196 5191 5184 5178 5169
5106 5108 5111 5114 5117 5120 5123 5126 5129 5132 5136 5140 5144 5147 5149 5151 5153 5157 5161 5165 5169 5172 5175 5178 5181 5183 5185 5190 5193 5193 5193 5194 5193 5192 5193 5191 5188 5184 5180 5174 5167 5159 5150
5106 5107 5109 5111 5113 5115 5117 5120 5122 5125 5128 5132 5136 5139 5141 5143 5146 5149 5152 5155 5157 5160 5162 5165 5168 5172 5176 5179 5180 5180 5180 5181 5180 5180 5179 5177 5174 5169 5163 5156 5148 5141 5131
5108 5109 5110 5111 5112 5113 5115 5116 5118 5120 5123 5126 5129 5131 5133 5136 5138 5140 5143 5146 5148 5151 5154 5158 5161 5163 5165 5167 5168 5169 5170 5170 5168 5167 5165 5161 5157 5152 5145 5138 5130 5122 5113